Location: Unspecified
(0.0000°N, 0.0000°E)
Time: 15:47:09
(UTC+02:00)

Cosmos 1125 Rocket - Visible Passes

Search period start: 20 April 2014 00:00
Search period end: 30 April 2014 00:00
Orbit: 760 x 781 km, 74.0° (Epoch: 19 April)

Date Brightness Start Highest point End Pass type
(mag) Time Alt. Az. Time Alt. Az. Time Alt. Az.
20 Apr 4.6 06:01:21 22° SSE 06:04:23 42° ESE 06:09:17 10° NNE visible
21 Apr 5.6 05:27:13 20° ESE 05:28:04 21° ESE 05:31:57 10° NE visible
21 Apr 4.7 07:07:38 17° WSW 07:09:53 22° WNW 07:13:50 10° NNW visible
22 Apr 3.7 06:33:17 43° W 06:33:36 44° WNW 06:38:31 10° N visible
23 Apr 4.1 05:58:45 49° NNE 05:58:45 49° NNE 06:02:31 10° NNE visible
24 Apr 5.6 05:24:04 22° NE 05:24:04 22° NE 05:25:57 10° NNE visible
25 Apr 5.5 06:29:37 13° NW 06:29:37 13° NW 06:30:22 10° NNW visible
26 Apr 5.8 05:54:40 12° N 05:54:40 12° N 05:55:06 10° N visible
